Flag for Switzerland Weather past 2 weeks in Bern, Bern, Switzerland

Now
59 °F

Partly sunny.


Feels Like: 56 °F
Forecast: 37 / 42 °F
Wind: 15 mph from Southwest

Location: Bern / Belp

Current Time: Mar 31, 2015 at 9:27:03 AM

Latest Report: Mar 31, 2015 at 8:50 AM


Visibility: N/A

Pressure: 29.95 "Hg

Humidity: 55%

Dew point: 43 °F

Location of BernLocation

Historic Weather in Bern — Graph

°F

Bern temperature yesterday

Maximum temperature yesterday: 55 °F (at 3:20 PM)
Minimum temperature yesterday: 48 °F (at 12:50 AM)
Average temperature yesterday: 51 °F

Past Weeks' High & Low Weather Summary

 TemperatureHumidityPressure
High64 °F (Mar 18, 2:20 PM)100% (Mar 16, 7:20 AM)30.27 "Hg (Mar 16, 7:20 AM)
Low28 °F (Mar 28, 3:20 AM)31% (Mar 17, 1:50 PM)29.59 "Hg (Mar 25, 11:50 AM)
Average45 °F76%30.00 "Hg
* Reported Mar 16 7:20 AM — Mar 31 8:20 AM, Bern, Weather by CustomWeather, © 2015

Note: Actual official high and low records may vary slightly from our data, if they occured in-between our weather recording intervals... More about our weather records

Advertising

Bern weather history for previous 24 hours

 ConditionsComfort  
Time TempWeatherWind HumidityBarometerVisibility
8:20 AM
Tue, Mar 31
57 °FScattered clouds.14 mph59%29.92 "HgN/A
7:50 AM59 °FPassing clouds.16 mph59%29.92 "HgN/A
7:20 AM59 °FPassing clouds.10 mph59%29.92 "HgN/A
6:50 AM59 °FPassing clouds.13 mph59%29.92 "HgN/A
6:20 AM59 °FPassing clouds.9 mph59%29.92 "HgN/A
5:50 AM59 °FPassing clouds.9 mph59%29.92 "HgN/A
5:20 AM55 °FPassing clouds.8 mph67%29.92 "HgN/A
4:50 AM46 °FMostly cloudy.6 mph93%29.92 "HgN/A
4:20 AM48 °FPartly cloudy.9 mph82%29.95 "HgN/A
3:50 AM54 °FSprinkles. Passing clouds.9 mph72%29.95 "HgN/A
3:20 AM46 °FPartly cloudy.5 mph87%29.98 "HgN/A
2:50 AM46 °FPartly cloudy.8 mph93%29.98 "HgN/A
2:20 AM46 °FPartly cloudy.5 mph93%29.98 "HgN/A
1:20 AM46 °FLight rain. Passing clouds.7 mph93%30.01 "HgN/A
12:50 AM46 °FLight rain. Partly cloudy.9 mph93%30.04 "HgN/A
12:20 AM48 °FSprinkles. Partly cloudy.9 mph87%30.04 "HgN/A
11:50 PM
Mon, Mar 30
50 °FDrizzle. Overcast.5 mph76%30.04 "HgN/A
11:20 PM50 °FDrizzle. Mostly cloudy.6 mph76%30.04 "HgN/A
10:50 PM50 °FSprinkles. Overcast.9 mph71%30.04 "HgN/A
10:20 PM50 °FSprinkles. Partly cloudy.10 mph76%30.04 "HgN/A
9:50 PM50 °FSprinkles. Partly cloudy.9 mph76%30.04 "HgN/A
9:20 PM50 °FSprinkles. Partly cloudy.10 mph82%30.04 "HgN/A
8:50 PM50 °FBroken clouds.10 mph76%30.01 "HgN/A
8:20 PM50 °FMore clouds than sun.8 mph76%30.01 "HgN/A
7:50 PM52 °FPartly sunny.7 mph72%30.01 "HgN/A
7:20 PM52 °FBroken clouds.8 mph67%29.98 "HgN/A
6:50 PM52 °FBroken clouds.8 mph72%29.98 "HgN/A
6:20 PM52 °FBroken clouds.6 mph72%29.98 "HgN/A
5:50 PM54 °FBroken clouds.13 mph67%29.95 "HgN/A
5:20 PM52 °FBroken clouds.10 mph72%29.95 "HgN/A
4:50 PM52 °FSprinkles. Broken clouds.16 mph77%29.95 "HgN/A
4:20 PM54 °FBroken clouds.15 mph67%29.92 "HgN/A
3:50 PM54 °FSprinkles. Broken clouds.18 mph77%29.89 "HgN/A
3:20 PM55 °FPartly sunny.10 mph72%29.89 "HgN/A
2:50 PM54 °FSprinkles. Partly sunny.13 mph77%29.89 "HgN/A
2:20 PM54 °FSprinkles. Broken clouds.13 mph82%29.89 "HgN/A
1:50 PM54 °FSprinkles. Partly sunny.9 mph82%29.86 "HgN/A
1:20 PM54 °FSprinkles. Partly sunny.12 mph82%29.86 "HgN/A
12:50 PM52 °FSprinkles. Broken clouds.10 mph82%29.86 "Hg6 mi
12:20 PM54 °FBroken clouds.15 mph72%29.86 "HgN/A
11:50 AM54 °FBroken clouds.13 mph72%29.86 "HgN/A
11:20 AM54 °FPartly sunny.15 mph72%29.83 "HgN/A
10:50 AM52 °FSprinkles. Broken clouds.13 mph77%29.83 "HgN/A
10:20 AM52 °FBroken clouds.14 mph77%29.80 "HgN/A
9:50 AM52 °FBroken clouds.13 mph72%29.80 "HgN/A
9:20 AM50 °FBroken clouds.17 mph76%29.77 "HgN/A
Weather by CustomWeather, © 2015

See weather overviewHow to use our weather pages